When you browse on this site, cookies collect data to enhance your experience and personalize the content and advertising you see.
Visit our Privacy Policy to learn more. By continuing to use the site, you agree to this use of cookies and data.
  • în România
  • Lista ţărilor
  • Pe 7 zile
  • Temperatura apei
  • Hartă satelitară
  • Meteo pe hartă
  • Widget-uri
  • user-avatar
    Intrare

    Meteo pe oră la Puerto Ayacucho

    Astăzi, 12 Decembrie, Miercuri

    Timp Temperatura Precipitaţii Vânt Presiune Umiditate
    00:00 +27°C° 0.1 mm 1 m/s 753 mmHg 83%
    01:00 +27°C° 0 mm 1 m/s 753 mmHg 82%
    02:00 +26°C° 0 mm 1 m/s 753 mmHg 81%
    03:00 +26°C° 0 mm 1 m/s 753 mmHg 81%
    04:00 +26°C° 0 mm 1 m/s 753 mmHg 80%
    05:00 +27°C° 0 mm 1 m/s 753 mmHg 78%
    06:00 +27°C° 0 mm 1 m/s 753 mmHg 75%
    07:00 +28°C° 0 mm 1 m/s 753 mmHg 71%
    08:00 +30°C° 0 mm 1 m/s 753 mmHg 66%
    09:00 +31°C° 0 mm 1 m/s 753 mmHg 62%
    10:00 +33°C° 0 mm 1 m/s 753 mmHg 57%
    11:00 +34°C° 0.2 mm 1 m/s 752 mmHg 56%
    12:00 +34°C° 0.2 mm 1 m/s 752 mmHg 55%
    13:00 +35°C° 0.2 mm 1 m/s 751 mmHg 54%
    14:00 +35°C° 0.3 mm 1 m/s 751 mmHg 55%
    15:00 +34°C° 0.3 mm 1 m/s 750 mmHg 57%
    16:00 +34°C° 0.3 mm 1 m/s 750 mmHg 58%
    17:00 +32°C° 0.4 mm 1 m/s 750 mmHg 63%
    18:00 +31°C° 0.4 mm 1 m/s 751 mmHg 69%
    19:00 +29°C° 0.4 mm 2 m/s 751 mmHg 74%
    20:00 +29°C° 0.9 mm 2 m/s 752 mmHg 78%
    21:00 +28°C° 0.9 mm 2 m/s 752 mmHg 81%
    22:00 +27°C° 0.9 mm 2 m/s 753 mmHg 84%
    23:00 +27°C° 0.5 mm 2 m/s 752 mmHg 85%

    Mâine, 13 Decembrie, Joi

    Timp Temperatura Precipitaţii Vânt Presiune Umiditate
    00:00 +26°C° 0.5 mm 2 m/s 752 mmHg 87%
    01:00 +26°C° 0.5 mm 1 m/s 752 mmHg 88%
    02:00 +26°C° 0 mm 1 m/s 752 mmHg 88%
    03:00 +26°C° 0 mm 1 m/s 752 mmHg 88%
    04:00 +26°C° 0 mm 1 m/s 752 mmHg 87%
    05:00 +26°C° 0 mm 1 m/s 752 mmHg 85%
    06:00 +27°C° 0 mm 1 m/s 753 mmHg 82%
    07:00 +28°C° 0 mm 1 m/s 753 mmHg 79%
    08:00 +29°C° 0.1 mm 1 m/s 753 mmHg 73%
    09:00 +31°C° 0.1 mm 1 m/s 753 mmHg 68%
    10:00 +32°C° 0.1 mm 1 m/s 753 mmHg 62%
    11:00 +33°C° 0.4 mm 1 m/s 752 mmHg 62%
    12:00 +33°C° 0.4 mm 1 m/s 752 mmHg 63%
    13:00 +34°C° 0.4 mm 1 m/s 751 mmHg 63%
    14:00 +33°C° 1.3 mm 1 m/s 751 mmHg 65%
    15:00 +33°C° 1.3 mm 1 m/s 750 mmHg 67%
    16:00 +32°C° 1.3 mm 1 m/s 750 mmHg 69%
    17:00 +31°C° 0.7 mm 1 m/s 750 mmHg 73%
    18:00 +30°C° 0.7 mm 1 m/s 751 mmHg 77%
    19:00 +28°C° 0.7 mm 2 m/s 751 mmHg 81%
    20:00 +28°C° 0.3 mm 1 m/s 752 mmHg 81%
    21:00 +27°C° 0.3 mm 1 m/s 752 mmHg 82%
    22:00 +27°C° 0.3 mm 1 m/s 753 mmHg 83%
    23:00 +27°C° 0 mm 1 m/s 752 mmHg 82%

    Poimâine, 14 Decembrie, Vineri

    Timp Temperatura Precipitaţii Vânt Presiune Umiditate
    00:00 +27°C° 0 mm 1 m/s 752 mmHg 82%
    01:00 +26°C° 0 mm 2 m/s 752 mmHg 82%
    02:00 +26°C° 0 mm 1 m/s 752 mmHg 81%
    03:00 +26°C° 0 mm 1 m/s 752 mmHg 80%
    04:00 +26°C° 0 mm 1 m/s 752 mmHg 80%
    05:00 +26°C° 0 mm 1 m/s 752 mmHg 77%
    06:00 +27°C° 0 mm 1 m/s 753 mmHg 75%
    07:00 +27°C° 0 mm 1 m/s 753 mmHg 72%
    08:00 +29°C° 0 mm 2 m/s 753 mmHg 66%
    09:00 +31°C° 0 mm 2 m/s 753 mmHg 59%
    10:00 +34°C° 0 mm 2 m/s 753 mmHg 53%
    11:00 +35°C° 0 mm 2 m/s 753 mmHg 52%
    12:00 +35°C° 0 mm 2 m/s 752 mmHg 50%
    13:00 +36°C° 0 mm 2 m/s 751 mmHg 49%
    14:00 +36°C° 0.2 mm 2 m/s 751 mmHg 51%
    15:00 +35°C° 0.2 mm 2 m/s 750 mmHg 53%
    16:00 +34°C° 0.2 mm 1 m/s 750 mmHg 55%
    17:00 +32°C° 0.2 mm 1 m/s 750 mmHg 60%
    18:00 +31°C° 0.2 mm 1 m/s 751 mmHg 65%
    19:00 +29°C° 0.2 mm 1 m/s 752 mmHg 70%
    20:00 +29°C° 0 mm 2 m/s 752 mmHg 71%
    21:00 +28°C° 0 mm 2 m/s 753 mmHg 72%
    22:00 +28°C° 0 mm 2 m/s 753 mmHg 73%
    23:00 +27°C° 0 mm 2 m/s 753 mmHg 74%

    15 Decembrie, Sâmbătă

    Timp Temperatura Precipitaţii Vânt Presiune Umiditate
    00:00 +27°C° 0 mm 2 m/s 753 mmHg 74%
    01:00 +26°C° 0 mm 2 m/s 752 mmHg 74%
    02:00 +26°C° 0 mm 2 m/s 752 mmHg 74%
    03:00 +26°C° 0 mm 2 m/s 752 mmHg 74%
    04:00 +25°C° 0 mm 1 m/s 752 mmHg 73%
    05:00 +26°C° 0 mm 1 m/s 753 mmHg 72%
    06:00 +27°C° 0 mm 1 m/s 753 mmHg 70%
    07:00 +27°C° 0 mm 1 m/s 754 mmHg 68%
    08:00 +29°C° 0 mm 1 m/s 754 mmHg 63%
    09:00 +31°C° 0 mm 1 m/s 754 mmHg 57%
    10:00 +33°C° 0 mm 1 m/s 754 mmHg 51%
    11:00 +33°C° 0 mm 1 m/s 753 mmHg 50%
    12:00 +34°C° 0 mm 1 m/s 752 mmHg 48%
    13:00 +36°C° 0 mm 2 m/s 751 mmHg 47%
    14:00 +34°C° 0.1 mm 1 m/s 751 mmHg 49%
    15:00 +34°C° 0.1 mm 1 m/s 750 mmHg 50%
    16:00 +34°C° 0.1 mm 1 m/s 750 mmHg 52%
    17:00 +32°C° 0.1 mm 1 m/s 751 mmHg 58%
    18:00 +31°C° 0.1 mm 1 m/s 751 mmHg 64%
    19:00 +29°C° 0.1 mm 1 m/s 752 mmHg 69%
    20:00 +29°C° 0 mm 1 m/s 752 mmHg 70%
    21:00 +28°C° 0 mm 2 m/s 753 mmHg 70%
    22:00 +28°C° 0 mm 2 m/s 753 mmHg 71%
    23:00 +27°C° 0 mm 2 m/s 753 mmHg 72%

    16 Decembrie, Duminică

    Timp Temperatura Precipitaţii Vânt Presiune Umiditate
    00:00 +27°C° 0 mm 2 m/s 753 mmHg 72%
    01:00 +27°C° 0 mm 2 m/s 753 mmHg 72%
    02:00 +26°C° 0 mm 2 m/s 753 mmHg 73%
    03:00 +26°C° 0 mm 2 m/s 753 mmHg 73%
    04:00 +26°C° 0 mm 2 m/s 753 mmHg 74%
    05:00 +26°C° 0 mm 2 m/s 753 mmHg 71%
    06:00 +27°C° 0 mm 2 m/s 754 mmHg 69%
    07:00 +28°C° 0 mm 2 m/s 754 mmHg 67%
    08:00 +30°C° 0 mm 2 m/s 754 mmHg 61%
    09:00 +32°C° 0 mm 2 m/s 754 mmHg 55%
    10:00 +34°C° 0 mm 2 m/s 754 mmHg 48%
    11:00 +35°C° 0.1 mm 2 m/s 753 mmHg 48%
    12:00 +35°C° 0.1 mm 2 m/s 752 mmHg 47%
    13:00 +36°C° 0.1 mm 2 m/s 751 mmHg 47%
    14:00 +35°C° 0.2 mm 2 m/s 751 mmHg 49%
    15:00 +34°C° 0.2 mm 1 m/s 750 mmHg 52%
    16:00 +34°C° 0.2 mm 1 m/s 750 mmHg 54%
    17:00 +32°C° 0.1 mm 1 m/s 751 mmHg 59%
    18:00 +30°C° 0.1 mm 1 m/s 751 mmHg 64%
    19:00 +29°C° 0.1 mm 1 m/s 752 mmHg 69%
    20:00 +28°C° 0 mm 1 m/s 752 mmHg 69%
    21:00 +28°C° 0 mm 1 m/s 752 mmHg 70%
    22:00 +27°C° 0 mm 1 m/s 753 mmHg 71%
    23:00 +27°C° 0 mm 1 m/s 752 mmHg 71%

    17 Decembrie, Luni

    Timp Temperatura Precipitaţii Vânt Presiune Umiditate
    00:00 +27°C° 0 mm 1 m/s 752 mmHg 71%
    01:00 +27°C° 0 mm 1 m/s 752 mmHg 71%
    02:00 +27°C° 0 mm 2 m/s 752 mmHg 70%
    03:00 +26°C° 0 mm 2 m/s 752 mmHg 70%
    04:00 +26°C° 0 mm 2 m/s 752 mmHg 69%
    05:00 +27°C° 0 mm 2 m/s 752 mmHg 68%
    06:00 +27°C° 0 mm 2 m/s 753 mmHg 67%
    07:00 +28°C° 0 mm 2 m/s 753 mmHg 66%
    08:00 +30°C° 0 mm 2 m/s 753 mmHg 60%
    09:00 +31°C° 0 mm 2 m/s 753 mmHg 55%
    10:00 +33°C° 0 mm 1 m/s 753 mmHg 50%
    11:00 +34°C° 0.1 mm 1 m/s 752 mmHg 49%
    12:00 +34°C° 0.1 mm 1 m/s 751 mmHg 49%
    13:00 +35°C° 0.1 mm 1 m/s 750 mmHg 49%
    14:00 +34°C° 0.7 mm 1 m/s 750 mmHg 52%
    15:00 +34°C° 0.7 mm 1 m/s 750 mmHg 55%
    16:00 +34°C° 0.7 mm 1 m/s 749 mmHg 58%
    17:00 +32°C° 0.2 mm 1 m/s 750 mmHg 63%
    18:00 +30°C° 0.2 mm 1 m/s 750 mmHg 68%
    19:00 +29°C° 0.2 mm 2 m/s 751 mmHg 73%
    20:00 +28°C° 0 mm 2 m/s 751 mmHg 73%
    21:00 +28°C° 0 mm 1 m/s 752 mmHg 73%
    22:00 +28°C° 0 mm 1 m/s 752 mmHg 73%
    23:00 +27°C° 0.2 mm 1 m/s 752 mmHg 74%
    Arată mai mult